Wetbulb
64.11 64.39 62.55 59.31 49.16 47.02 43.52 44.15 46.53 46.31 45.93 48.17 50.80 48.36 47.06 49.31 48.24 43.85 52.42 55.89 58.37 58.43 61.40 61.39 64.17 65.14 66.08 66.63 66.87 66.91 67.07 67.78 68.22 67.73 67.88 68.19 67.98 68.01 67.51 67.40 67.62 68.18 69.21 70.16 70.49 70.58 70.20 69.56 69.87
61.33 61.88 59.45 55.55 45.14 42.36 43.39 46.09 44.46 47.09 48.83 49.43 49.09 48.62 46.35 46.35 51.02 49.16 48.84 55.40 57.29 58.01 59.15 59.43 63.05 63.53 64.31 64.06 64.22 64.47 64.75 65.00 64.82 65.48 66.26 65.53 64.74 64.44 64.70 64.79 64.52 64.90 65.75 66.31 66.73 66.95 67.20 66.99 67.96
60.92 60.17 54.02 50.20 45.87 42.00 42.33 44.95 46.57 48.03 48.85 47.84 46.48 46.72 47.13 46.67 50.44 49.51 51.17 54.78 55.72 56.04 57.26 58.40 61.22 62.09 62.52 62.07 61.96 61.85 61.89 62.11 61.89 63.28 63.07 62.02 61.21 61.07 60.87 61.06 60.97 61.21 61.97 62.86 63.39 63.43 63.48 64.42 64.93
58.53 55.59 52.93 43.27 42.31 45.64 44.22 45.13 48.29 46.96 46.60 48.71 47.55 44.53 46.99 48.81 50.11 50.92 51.96 53.92 53.42 54.51 55.60 57.71 59.71 60.41 60.74 60.29 60.15 59.95 59.66 59.59 59.49 60.22 59.89 59.14 58.59 58.34 58.31 58.26 58.28 58.50 58.88 59.32 59.73 59.52 60.61 61.58 62.22
56.00 53.50 45.74 43.62 44.34 45.02 46.53 47.42 48.89 46.94 46.65 46.83 46.96 45.12 45.17 48.05 49.85 49.48 50.11 52.68 51.57 51.75 53.11 54.59 57.98 58.60 58.97 58.87 58.58 58.26 58.12 57.69 57.13 57.24 57.14 56.78 56.30 56.11 56.29 56.51 56.90 57.05 57.23 57.74 57.75 57.72 58.43 58.29 58.09
50.76 50.59 43.10 41.18 44.17 46.05 45.89 46.76 47.58 47.73 48.23 46.91 45.59 44.23 45.53 48.78 47.52 47.37 48.24 49.15 50.48 50.39 51.38 52.17 54.98 56.21 56.49 56.58 56.61 56.47 56.29 55.57 54.91 54.75 54.74 54.59 54.19 54.21 54.28 54.67 55.35 55.69 56.11 56.44 56.66 56.60 56.66 56.54 56.10
49.63 48.49 43.92 44.33 44.75 45.48 47.54 48.51 45.97 46.81 46.90 46.53 47.46 44.22 43.85 45.47 47.55 47.13 45.94 45.95 47.02 48.35 48.92 48.63 49.28 51.73 53.68 53.41 54.06 54.11 53.85 53.09 52.57 52.01 51.83 51.91 51.62 51.64 51.39 51.78 53.24 53.60 54.17 54.58 54.75 54.88 55.11 55.00 54.98
50.20 48.05 44.05 43.83 43.91 44.11 46.78 47.34 46.61 47.44 46.34 48.74 49.53 43.96 42.73 46.34 47.82 46.42 45.40 44.35 43.83 44.65 45.44 45.66 46.42 48.08 47.42 46.95 50.98 51.18 50.91 50.33 49.97 49.01 48.39 48.76 49.69 49.54 49.27 48.22 50.39 51.17 52.05 52.75 53.05 53.45 53.55 53.35 53.67
53.10 43.75 42.59 45.42 44.60 44.86 46.78 45.01 46.95 46.41 44.75 46.12 48.29 45.67 45.96 48.46 47.00 44.26 43.02 43.07 42.64 44.19 44.02 44.43 44.44 44.97 46.10 45.60 47.07 47.84 48.22 47.95 48.02 47.43 46.50 47.15 43.75 43.66 45.07 47.06 49.00 49.73 50.59 51.35 51.83 52.25 52.01 51.07 50.43
48.23 44.88 46.39 47.23 46.75 44.80 47.11 46.22 46.31 43.45 44.31 45.27 45.75 46.71 47.32 46.51 44.54 43.01 42.15 41.77 41.53 41.27 42.45 43.12 43.42 43.65 44.44 45.71 43.48 44.31 44.96 43.95 43.96 43.82 43.29 43.71 42.76 42.80 45.42 47.06 47.70 47.98 47.72 48.25 49.17 49.71 48.74 46.99 44.17
48.41 44.53 47.85 47.96 47.82 47.52 46.91 46.01 47.66 44.43 43.46 45.72 45.93 46.83 45.10 43.98 43.29 43.13 42.94 42.93 42.66 41.94 42.29 42.56 42.96 43.36 42.52 41.45 43.32 43.11 43.07 42.57 42.36 41.72 42.18 42.49 42.70 41.55 41.60 40.85 40.77 40.87 43.93 40.77 41.91 41.92 41.92 41.53 41.94
45.16 48.94 49.25 49.65 48.22 46.76 45.15 46.79 45.72 46.09 46.30 48.24 48.02 49.17 45.49 44.13 43.43 43.53 43.62 43.93 43.14 42.51 42.55 42.12 42.41 42.60 42.50 42.64 42.34 42.60 42.13 41.84 41.05 40.46 41.01 40.49 39.75 38.93 39.00 38.66 38.72 38.55 38.61 37.77 38.07 38.66 39.58 39.88 41.27
46.20 47.24 48.86 48.58 47.12 46.31 47.64 44.99 44.97 45.33 47.86 49.66 48.84 47.56 45.42 45.29 44.49 44.73 45.22 45.19 44.06 42.90 42.76 41.30 41.43 41.58 42.83 41.86 41.52 41.52 40.05 40.79 40.27 39.96 39.58 39.13 38.52 37.13 37.98 37.43 37.36 36.98 36.81 36.64 36.25 37.02 37.49 38.00 39.44
46.63 47.09 47.05 48.07 47.35 46.75 44.71 44.03 44.71 45.69 48.34 48.18 48.37 45.92 46.25 45.74 45.89 45.17 45.08 45.34 45.49 44.60 42.80 41.79 41.39 41.51 42.17 40.96 40.57 40.47 40.30 39.74 39.32 38.82 38.18 38.65 38.09 36.22 36.81 36.43 36.55 36.12 35.76 35.77 35.84 36.00 36.00 36.51 37.80
46.64 42.57 45.24 46.12 46.47 45.14 45.60 41.60 42.52 47.00 46.41 46.46 46.88 46.80 46.00 46.20 46.56 46.54 46.81 45.88 46.34 45.63 43.28 41.73 41.03 41.62 40.88 40.85 40.74 40.12 39.92 40.05 38.53 38.04 37.77 37.52 37.61 36.21 35.65 35.41 35.14 35.01 34.98 35.45 35.11 35.41 35.66 35.17 36.75
42.21 42.10 38.11 44.12 46.25 44.46 43.68 37.73 45.32 47.78 46.37 44.76 44.98 44.91 45.86 45.99 47.02 46.90 47.11 46.80 46.18 45.06 42.63 41.99 42.93 41.28 40.15 39.70 39.76 39.86 38.72 38.07 38.07 37.56 36.95 36.67 36.84 36.13 34.88 34.41 34.54 34.90 34.29 33.89 33.86 33.72 33.34 33.40 33.94
42.01 36.60 39.01 42.53 46.41 43.20 41.42 38.85 44.28 45.09 44.24 43.51 44.12 44.89 45.61 45.95 46.50 46.81 46.44 45.81 45.62 44.91 42.63 41.17 40.50 39.75 39.45 39.28 38.94 38.57 38.25 37.34 37.29 36.64 36.14 36.32 36.60 36.17 34.32 34.14 33.94 34.19 33.48 32.89 33.31 32.64 32.23 31.58 32.35
36.87 37.90 40.13 39.44 42.32 42.15 39.16 39.48 43.75 44.99 43.84 43.46 44.30 44.59 45.58 45.84 46.29 47.30 46.42 45.87 45.33 44.02 42.44 40.95 40.22 38.92 38.86 38.38 37.40 36.92 36.56 36.36 36.04 35.36 35.73 35.65 35.51 35.37 33.89 33.46 33.32 33.44 32.31 31.81 32.28 31.38 31.81 31.42 31.86
42.40 40.60 39.28 42.50 44.55 41.03 40.18 40.85 43.19 45.67 44.02 43.88 45.77 46.55 45.69 46.34 47.38 47.40 47.00 45.08 44.04 42.84 41.47 40.39 39.04 38.39 39.17 37.14 35.70 34.33 34.85 34.79 34.36 35.04 35.05 34.51 34.30 34.44 33.29 32.55 32.28 32.13 31.07 31.06 31.25 30.95 30.51 29.94 31.19
40.49 38.64 39.01 42.24 43.23 40.90 39.69 39.47 42.76 43.58 44.76 45.46 45.74 45.91 46.47 45.07 45.08 45.10 44.99 44.18 43.44 42.26 41.32 39.88 39.29 38.56 38.91 38.19 37.20 35.35 35.43 34.49 34.61 34.87 34.03 34.19 33.96 33.62 32.78 31.56 30.61 30.52 29.80 29.99 30.09 30.23 29.10 29.51 30.05
40.27 37.87 38.55 38.40 40.97 37.87 35.74 34.01 38.34 41.78 44.31 45.60 46.11 46.37 46.56 44.49 44.04 43.56 43.88 43.50 41.64 41.08 40.65 39.81 39.52 38.92 38.71 37.61 37.11 35.37 34.50 33.13 31.71 32.02 31.86 32.89 33.34 32.76 32.02 31.10 30.29 29.77 29.58 28.60 28.73 28.92 28.64 27.01 28.07
36.29 41.21 40.34 39.22 35.44 31.67 36.95 28.01 36.59 39.61 40.88 42.02 43.33 43.27 44.51 42.92 43.93 44.33 43.09 42.26 41.40 41.24 40.80 39.94 39.47 38.89 38.61 37.63 36.94 34.17 33.22 29.77 30.82 32.85 32.52 32.30 32.34 31.54 31.47 31.13 30.21 28.91 28.81 28.35 28.87 30.50 28.46 27.27 25.99
38.50 39.44 37.16 36.33 34.36 33.03 33.62 30.07 34.14 39.70 38.09 40.60 41.98 43.12 44.92 43.07 43.55 42.87 42.96 42.76 41.81 40.54 39.32 39.38 38.80 38.35 38.24 37.34 36.69 34.13 31.62 31.53 32.47 31.96 31.64 30.72 30.66 30.94 30.46 30.34 29.36 28.19 28.08 28.07 27.99 28.04 27.49 27.72 26.54
39.33 36.47 35.44 33.58 31.86 25.24 32.61 32.69 32.57 35.39 38.30 39.34 41.29 42.42 43.16 42.49 42.18 42.36 42.00 41.49 40.65 39.82 38.34 38.48 37.85 37.60 37.27 37.06 36.03 34.36 32.77 32.31 31.00 29.71 29.43 28.76 29.01 29.15 29.26 29.34 28.07 27.96 27.28 26.93 27.36 27.65 27.18 26.53 26.71
36.09 33.59 26.65 24.37 23.02 25.23 34.96 31.65 36.30 37.91 39.43 40.24 40.59 42.29 41.79 42.15 41.11 40.17 39.95 39.74 39.74 38.55 38.16 37.76 37.21 36.71 37.17 36.60 35.72 34.77 33.63 32.54 31.52 30.85 30.11 28.45 27.56 26.81 27.21 27.53 27.14 26.58 26.69 26.83 26.80 26.81 26.10 26.06 25.48
33.67 34.91 27.20 20.26 20.96 29.95 32.47 26.96 34.06 41.45 42.72 41.65 41.94 42.70 41.37 40.68 40.93 40.30 39.93 39.50 38.95 38.29 37.75 37.66 36.85 36.31 36.38 35.93 35.39 34.70 33.46 34.08 32.82 31.39 30.53 28.49 27.16 27.13 27.59 26.66 26.26 26.05 26.19 25.86 26.00 25.47 25.75 25.90 26.02
34.11 30.09 35.81 29.63 23.02 22.49 31.05 33.75 37.67 39.40 40.00 40.52 41.45 40.05 39.34 39.30 39.97 40.23 40.04 38.96 37.98 38.17 37.69 37.45 36.41 36.25 36.00 35.50 34.84 34.13 33.63 32.59 31.64 29.20 28.10 27.08 26.43 27.30 25.92 25.60 25.20 25.34 25.28 25.69 25.43 25.39 25.23 25.10 25.84
33.58 35.87 28.79 29.38 18.26 16.99 30.11 28.80 33.25 36.96 39.91 39.15 38.12 38.62 39.27 40.08 39.63 39.44 39.69 39.25 38.57 38.74 38.22 37.26 36.61 35.63 35.76 34.91 34.40 34.09 33.03 31.38 29.05 27.87 26.63 25.91 25.42 24.90 24.41 23.87 24.24 24.38 24.73 24.82 24.70 24.55 24.89 24.24 24.76
29.35 29.48 30.89 32.05 29.72 23.18 24.67 29.75 34.63 38.59 39.76 39.14 38.89 39.69 39.71 40.66 40.55 40.14 39.70 38.99 39.08 38.10 37.50 36.76 35.77 34.89 34.77 33.90 33.78 32.68 31.17 29.07 27.84 26.92 25.22 24.50 24.87 24.23 23.50 23.39 23.47 23.62 23.91 24.00 23.31 23.54 23.19 22.54 22.17
35.57 34.77 33.71 28.76 27.40 26.95 28.05 31.68 38.87 38.14 38.84 39.91 39.38 40.63 40.75 41.16 41.15 40.23 39.91 38.19 37.38 37.82 37.07 36.17 35.42 34.60 34.34 34.31 32.83 31.45 29.04 27.70 26.46 25.17 23.93 24.13 23.13 23.31 22.77 22.67 22.36 22.67 22.73 22.81 22.13 21.55 21.65 20.70 20.02
MSLP
1013.80 1013.40 1012.91 1012.76 1013.07 1012.09 1010.90 1010.09 1009.92 1010.50 1010.83 1011.07 1011.36 1011.89 1012.80 1013.55 1014.95 1017.25 1017.80 1017.99 1018.01 1018.18 1018.63 1019.14 1019.08 1019.18 1019.25 1019.32 1019.34 1019.39 1019.56 1019.60 1019.61 1019.70 1019.78 1019.86 1019.96 1020.00 1020.04 1020.09 1020.05 1019.85 1019.68 1019.57 1019.53 1019.42 1019.53 1019.58 1019.41
1013.66 1012.98 1012.97 1012.57 1012.34 1011.30 1010.08 1009.73 1010.31 1010.73 1011.37 1011.68 1012.18 1012.74 1013.30 1014.39 1015.53 1017.14 1017.97 1018.08 1018.05 1018.18 1018.71 1019.29 1019.33 1019.34 1019.41 1019.55 1019.58 1019.71 1019.89 1019.90 1019.97 1020.03 1020.02 1020.18 1020.36 1020.44 1020.40 1020.33 1020.32 1020.28 1020.15 1020.14 1019.99 1019.89 1020.03 1020.01 1019.82
1013.80 1013.17 1013.07 1012.21 1011.46 1010.73 1010.07 1009.91 1010.40 1011.47 1011.82 1012.29 1012.84 1013.41 1014.00 1015.11 1015.90 1017.02 1017.53 1017.92 1018.19 1018.50 1019.02 1019.37 1019.43 1019.42 1019.49 1019.67 1019.78 1020.04 1020.03 1020.13 1020.28 1020.32 1020.43 1020.57 1020.66 1020.64 1020.63 1020.61 1020.68 1020.69 1020.50 1020.45 1020.34 1020.29 1020.35 1020.24 1020.05
1013.33 1013.13 1012.95 1012.22 1011.30 1009.89 1009.65 1009.86 1010.63 1011.68 1012.42 1012.63 1012.91 1013.79 1014.72 1015.53 1015.79 1016.48 1017.50 1017.87 1018.23 1018.57 1019.14 1019.51 1019.53 1019.54 1019.71 1019.89 1020.03 1020.21 1020.33 1020.37 1020.46 1020.54 1020.67 1020.83 1020.91 1020.91 1020.86 1020.78 1020.72 1020.68 1020.64 1020.60 1020.55 1020.59 1020.50 1020.42 1020.29
1013.44 1012.87 1012.48 1011.68 1010.64 1009.42 1009.43 1009.93 1010.36 1011.65 1012.14 1012.72 1013.24 1013.81 1015.04 1015.85 1016.20 1016.83 1017.43 1017.74 1018.34 1018.79 1019.39 1019.70 1019.79 1019.86 1019.99 1020.19 1020.38 1020.53 1020.63 1020.73 1020.87 1020.96 1021.05 1021.13 1021.21 1021.20 1021.15 1021.11 1020.98 1020.94 1020.92 1020.81 1020.74 1020.62 1020.48 1020.42 1020.27
1013.13 1012.51 1012.09 1011.15 1009.90 1009.40 1009.46 1009.82 1010.34 1011.05 1011.64 1012.45 1013.31 1013.89 1014.72 1015.32 1016.25 1017.05 1017.49 1017.89 1018.27 1018.88 1019.55 1020.02 1020.27 1020.23 1020.27 1020.45 1020.58 1020.73 1020.88 1021.05 1021.22 1021.36 1021.42 1021.38 1021.48 1021.49 1021.46 1021.44 1021.26 1021.20 1021.06 1020.87 1020.73 1020.59 1020.55 1020.44 1020.33
1012.96 1012.39 1011.77 1010.92 1010.09 1009.36 1009.35 1009.86 1010.59 1011.01 1011.41 1012.11 1012.61 1013.64 1014.89 1015.77 1016.27 1016.79 1017.25 1017.72 1018.14 1018.79 1019.42 1019.98 1020.34 1020.48 1020.63 1020.80 1020.89 1021.05 1021.25 1021.43 1021.50 1021.61 1021.68 1021.74 1021.74 1021.80 1021.80 1021.76 1021.64 1021.55 1021.37 1021.25 1021.10 1020.93 1020.78 1020.46 1020.27
1013.01 1012.41 1011.43 1010.43 1009.89 1009.64 1009.67 1010.15 1010.70 1011.10 1011.58 1011.57 1012.25 1013.23 1014.16 1014.62 1015.73 1016.57 1017.19 1017.75 1018.26 1018.73 1019.12 1019.53 1020.01 1020.32 1020.71 1021.04 1021.20 1021.36 1021.56 1021.65 1021.76 1021.84 1021.86 1021.79 1021.85 1021.85 1022.08 1022.22 1022.09 1022.07 1021.72 1021.41 1021.22 1021.11 1020.89 1020.48 1020.21
1012.91 1012.64 1011.24 1010.05 1009.55 1009.57 1010.03 1010.52 1010.93 1011.22 1011.57 1011.87 1012.30 1012.87 1013.79 1014.51 1015.71 1016.69 1017.30 1017.77 1018.12 1018.49 1018.82 1019.08 1019.49 1019.83 1020.30 1020.89 1021.30 1021.49 1021.62 1021.66 1021.78 1021.96 1021.98 1021.97 1022.09 1022.26 1022.38 1022.48 1022.37 1022.13 1021.75 1021.60 1021.40 1021.23 1021.13 1020.93 1020.84
1012.75 1011.98 1010.68 1009.73 1009.54 1009.72 1009.93 1010.55 1010.94 1011.63 1011.59 1011.63 1012.02 1012.95 1013.88 1014.90 1015.86 1016.44 1016.88 1017.27 1017.64 1018.18 1018.50 1018.87 1019.25 1019.63 1020.00 1020.29 1021.09 1021.27 1021.40 1021.64 1021.77 1021.87 1021.94 1021.94 1022.16 1022.31 1022.35 1022.45 1022.43 1022.19 1022.19 1022.05 1022.01 1021.82 1021.82 1021.64 1021.39
1011.87 1011.37 1010.23 1009.84 1009.86 1010.05 1010.36 1010.47 1010.76 1011.23 1011.29 1010.87 1011.25 1012.33 1013.47 1014.58 1015.45 1015.96 1016.41 1016.64 1016.87 1017.52 1018.05 1018.41 1018.78 1019.18 1019.69 1019.98 1020.55 1020.87 1021.13 1021.42 1021.68 1021.84 1021.97 1022.06 1022.21 1022.32 1022.38 1022.56 1022.65 1022.63 1022.54 1022.58 1022.46 1022.30 1022.25 1022.18 1021.94
1011.72 1010.92 1010.55 1010.32 1010.44 1010.78 1010.88 1010.70 1010.65 1010.69 1010.04 1010.03 1010.32 1010.77 1012.27 1013.54 1014.30 1014.80 1015.29 1015.77 1016.20 1016.71 1017.31 1017.91 1018.37 1018.89 1019.38 1019.77 1020.19 1020.39 1020.77 1021.05 1021.45 1021.76 1021.80 1021.97 1022.19 1022.38 1022.45 1022.65 1022.75 1022.74 1022.68 1022.78 1022.77 1022.70 1022.49 1022.36 1022.04
1011.43 1011.11 1010.69 1010.42 1010.81 1011.22 1011.25 1011.03 1011.16 1009.95 1009.69 1009.78 1010.09 1010.54 1011.70 1012.54 1013.14 1013.72 1014.16 1014.75 1015.27 1015.86 1016.49 1017.16 1017.89 1018.52 1019.00 1019.48 1019.86 1020.10 1020.57 1020.87 1021.19 1021.58 1021.84 1022.00 1022.29 1022.53 1022.56 1022.72 1022.79 1022.84 1022.89 1022.93 1023.06 1022.97 1022.90 1022.72 1022.39
1011.22 1011.25 1010.89 1010.59 1010.77 1011.22 1011.54 1011.20 1011.32 1009.06 1008.90 1009.27 1009.59 1010.07 1010.88 1011.62 1011.94 1012.81 1013.27 1013.59 1014.19 1014.91 1015.62 1016.41 1017.30 1017.97 1018.60 1019.11 1019.39 1019.81 1020.24 1020.62 1021.06 1021.49 1021.83 1021.97 1022.23 1022.49 1022.60 1022.71 1022.72 1022.97 1023.15 1023.34 1023.32 1023.19 1023.04 1022.79 1022.42
1011.56 1011.63 1010.93 1010.38 1010.43 1011.13 1011.31 1011.22 1010.19 1008.34 1008.70 1008.91 1009.17 1009.38 1009.85 1010.36 1010.91 1011.00 1011.49 1012.45 1013.02 1013.83 1014.78 1015.74 1016.73 1017.54 1018.21 1018.63 1019.01 1019.41 1019.86 1020.33 1020.87 1021.37 1021.68 1021.97 1022.13 1022.36 1022.57 1022.86 1023.00 1023.21 1023.44 1023.44 1023.33 1023.12 1022.96 1022.85 1022.57
1011.86 1011.49 1010.67 1009.21 1009.56 1011.13 1011.61 1009.86 1008.64 1007.80 1008.18 1008.53 1008.75 1009.01 1009.05 1009.30 1009.53 1010.02 1010.60 1011.47 1012.37 1013.27 1014.15 1015.23 1016.17 1017.07 1017.79 1018.21 1018.68 1019.07 1019.54 1020.03 1020.55 1021.07 1021.54 1021.85 1022.10 1022.39 1022.67 1022.93 1023.04 1023.23 1023.46 1023.35 1023.17 1023.09 1023.13 1023.13 1022.96
1011.17 1010.74 1010.02 1009.15 1008.90 1010.29 1011.04 1009.42 1008.00 1007.56 1007.62 1008.10 1008.27 1008.27 1008.36 1008.18 1008.24 1008.60 1009.38 1010.35 1011.52 1012.57 1013.47 1014.49 1015.44 1016.40 1017.21 1017.83 1018.38 1018.92 1019.36 1019.87 1020.31 1020.77 1021.26 1021.73 1022.15 1022.48 1022.70 1022.77 1022.86 1023.02 1023.29 1023.32 1023.26 1023.43 1023.57 1023.43 1023.14
1010.22 1010.15 1009.51 1009.02 1009.36 1009.88 1010.27 1009.18 1007.95 1007.66 1007.70 1007.72 1007.58 1007.22 1007.12 1007.07 1006.66 1007.28 1008.13 1008.99 1010.33 1011.70 1012.92 1014.04 1015.02 1015.90 1016.73 1017.49 1018.09 1018.72 1019.31 1019.68 1019.95 1020.37 1020.79 1021.19 1021.57 1021.93 1022.29 1022.45 1022.51 1022.71 1023.04 1023.29 1023.42 1023.71 1023.81 1023.69 1023.28
1009.66 1009.50 1009.29 1008.34 1008.49 1009.29 1009.14 1008.66 1007.81 1006.97 1007.18 1006.97 1006.61 1006.09 1006.03 1005.67 1005.41 1005.93 1006.95 1008.20 1009.50 1010.85 1012.29 1013.38 1014.56 1015.47 1016.33 1017.10 1017.82 1018.53 1018.88 1019.24 1019.66 1019.97 1020.24 1020.64 1021.06 1021.54 1021.90 1022.00 1022.09 1022.29 1022.78 1023.17 1023.45 1023.65 1023.73 1023.55 1023.19
1009.62 1009.36 1008.80 1008.02 1008.07 1008.71 1008.58 1008.12 1007.27 1006.97 1006.04 1005.84 1005.62 1005.27 1004.79 1004.71 1004.81 1005.15 1006.31 1007.61 1008.65 1009.92 1011.33 1012.72 1013.74 1014.61 1015.37 1016.19 1016.98 1017.64 1018.29 1018.85 1019.16 1019.59 1019.96 1020.30 1020.79 1021.26 1021.61 1021.76 1021.99 1022.33 1022.79 1023.07 1023.20 1023.28 1023.56 1023.46 1023.16
1008.86 1009.17 1008.77 1008.73 1008.72 1009.00 1008.97 1008.15 1007.31 1006.21 1005.38 1004.87 1004.44 1004.04 1003.73 1003.78 1004.50 1005.02 1005.96 1007.05 1008.40 1009.58 1010.53 1011.53 1012.59 1013.71 1014.79 1015.69 1016.61 1017.17 1017.83 1018.39 1019.09 1019.32 1019.67 1019.84 1020.12 1020.55 1020.88 1021.25 1021.84 1022.25 1022.61 1023.00 1023.19 1023.34 1023.68 1023.83 1023.42
1008.14 1008.61 1008.85 1009.14 1009.70 1009.30 1008.54 1006.94 1005.97 1005.34 1004.77 1004.29 1003.62 1003.16 1002.67 1002.97 1003.23 1004.22 1005.65 1006.71 1007.43 1008.52 1009.85 1011.02 1012.03 1012.96 1013.84 1014.79 1015.67 1016.29 1016.68 1017.24 1017.48 1017.97 1018.75 1019.35 1019.72 1020.14 1020.50 1020.96 1021.37 1021.81 1022.22 1022.52 1022.56 1022.69 1023.23 1023.79 1023.87
1008.35 1008.92 1009.28 1009.60 1009.84 1009.52 1009.13 1008.53 1004.42 1004.43 1004.08 1003.37 1002.89 1002.34 1001.69 1002.40 1002.88 1003.97 1004.94 1005.77 1007.07 1008.24 1009.36 1010.46 1011.52 1012.51 1013.17 1013.90 1014.62 1015.53 1016.21 1016.64 1016.75 1017.61 1018.45 1019.13 1019.50 1019.83 1020.23 1020.55 1020.91 1021.36 1021.76 1022.12 1022.46 1022.64 1022.91 1023.29 1023.65
1009.45 1009.73 1010.14 1010.34 1010.53 1008.99 1008.26 1007.69 1003.16 1003.16 1002.53 1002.25 1002.03 1001.75 1001.25 1002.23 1003.02 1003.85 1004.82 1005.85 1006.90 1007.89 1008.90 1009.97 1010.85 1011.56 1012.39 1013.16 1013.73 1014.41 1015.01 1015.96 1016.42 1017.01 1017.75 1018.39 1018.91 1019.41 1019.76 1020.08 1020.52 1020.92 1021.34 1021.74 1022.04 1022.38 1022.55 1022.87 1023.09
1009.98 1010.32 1010.90 1011.12 1010.74 1007.07 1005.83 1005.09 1001.95 1001.36 1001.12 1001.07 1001.27 1000.82 1001.39 1002.35 1003.37 1003.99 1004.84 1005.70 1006.57 1007.42 1008.35 1009.27 1010.00 1010.60 1011.34 1012.18 1012.82 1013.37 1014.07 1015.03 1015.59 1016.18 1016.96 1017.81 1018.50 1019.01 1019.31 1019.60 1020.11 1020.46 1020.79 1021.23 1021.61 1022.07 1022.28 1022.47 1022.57
1009.80 1009.84 1010.13 1010.23 1009.34 1006.17 1005.20 1002.05 1000.76 1000.06 999.69 999.57 1000.07 999.59 1001.01 1002.24 1003.04 1003.78 1004.46 1005.20 1006.05 1006.81 1007.65 1008.35 1008.97 1009.78 1010.36 1011.16 1011.84 1012.64 1013.34 1013.91 1014.60 1015.21 1015.99 1016.86 1017.52 1018.04 1018.56 1019.18 1019.77 1020.18 1020.51 1020.98 1021.30 1021.65 1021.89 1022.07 1022.10
1009.20 1009.69 1008.74 1009.21 1008.40 1007.47 1003.41 1001.14 999.73 999.20 999.13 999.03 999.15 1000.00 1001.02 1001.87 1002.82 1003.43 1004.18 1004.82 1005.61 1006.26 1006.79 1007.43 1008.31 1009.08 1009.82 1010.47 1011.51 1012.01 1012.61 1013.07 1013.61 1014.48 1015.30 1016.14 1016.88 1017.59 1018.10 1018.64 1019.35 1019.80 1020.21 1020.67 1020.96 1021.22 1021.55 1021.65 1021.69
1008.79 1008.77 1009.29 1009.15 1008.56 1006.76 1001.64 1001.36 999.48 999.23 998.69 998.92 999.50 1000.03 1000.67 1001.51 1002.39 1003.07 1003.56 1004.07 1004.64 1005.61 1006.22 1007.04 1007.72 1008.24 1008.84 1009.58 1010.46 1011.13 1012.02 1012.49 1013.09 1013.90 1014.76 1015.67 1016.52 1017.27 1017.89 1018.49 1019.00 1019.45 1019.77 1020.14 1020.49 1020.80 1020.94 1021.03 1021.21
1008.80 1008.59 1008.50 1008.02 1006.95 1005.53 1003.66 999.46 997.68 997.52 997.64 998.49 999.18 999.73 1000.52 1001.05 1001.52 1001.94 1002.60 1003.17 1003.99 1004.59 1005.19 1005.72 1006.70 1007.24 1007.89 1008.51 1009.46 1010.37 1011.26 1011.96 1012.67 1013.40 1014.21 1015.11 1016.02 1016.82 1017.49 1018.18 1018.93 1019.44 1019.69 1019.87 1020.12 1020.44 1020.60 1020.64 1020.81
1006.26 1006.32 1006.68 1006.65 1005.35 1004.64 1003.44 997.77 997.60 997.67 997.58 998.12 998.99 999.43 999.77 1000.19 1000.75 1001.13 1001.63 1002.52 1003.26 1003.74 1004.41 1005.00 1005.72 1006.32 1006.81 1007.66 1008.52 1009.47 1010.48 1011.34 1012.24 1012.94 1013.71 1014.62 1015.45 1016.32 1017.06 1017.83 1018.49 1018.91 1019.33 1019.64 1019.95 1020.10 1020.23 1020.36 1020.31
Wind_Speed
5 8 5 3 1 3 6 5 5 5 1 4 7 4 2 7 3 3 4 6 7 6 10 8 10 10 10 10 13 13 11 10 12 12 11 13 13 12 13 13 14 14 14 15 15 16 16 15 14
7 4 2 4 2 4 3 8 5 7 6 7 6 4 1 4 6 8 7 7 7 6 9 7 8 10 11 12 12 12 11 12 12 11 11 11 11 12 12 13 13 13 13 13 13 14 15 15 15
6 4 2 3 5 7 3 3 9 8 6 4 4 2 4 4 8 10 7 9 8 8 8 6 8 10 11 11 12 12 12 12 12 12 12 12 12 12 13 13 13 13 13 14 14 14 14 13 12
3 2 4 2 10 10 4 3 15 8 3 5 2 3 5 3 5 10 10 9 8 8 9 7 10 11 11 11 11 11 11 12 12 11 12 12 12 13 13 13 13 14 14 14 14 13 13 13 13
3 4 3 6 10 4 5 4 10 8 8 8 4 4 4 5 10 10 9 8 8 8 8 6 9 10 11 11 10 10 11 11 11 11 11 12 12 12 13 14 14 14 13 13 14 14 14 15 14
3 2 4 6 5 5 3 3 6 9 9 6 6 4 5 11 11 9 8 8 8 8 8 7 7 9 10 10 10 10 11 11 11 10 11 11 12 13 13 14 14 15 15 15 16 16 15 15 15
3 3 6 10 8 4 6 6 5 7 7 7 2 4 4 9 9 9 9 9 8 8 8 7 7 8 10 9 9 10 10 10 10 10 10 11 11 12 14 15 15 15 15 14 15 15 15 16 15
3 2 6 5 5 5 5 6 3 6 4 4 9 6 6 11 12 10 8 8 8 8 8 8 8 7 7 6 9 9 10 10 10 9 7 6 10 11 13 12 11 12 12 13 14 15 16 17 16
1 3 6 8 1 0 6 5 5 1 2 3 8 3 4 17 13 9 7 8 7 7 8 8 8 7 8 8 6 8 8 8 7 6 1 2 5 5 7 8 10 12 14 15 16 17 16 17 16
4 3 6 3 6 3 7 7 6 2 5 7 5 7 7 12 12 12 11 11 9 9 8 7 7 7 7 7 7 7 6 4 4 4 4 3 5 3 4 5 12 13 16 16 17 17 17 13 5
6 5 0 4 2 4 6 6 7 7 9 8 12 11 13 10 12 13 13 11 13 9 7 8 8 8 8 5 5 3 3 4 4 5 3 2 3 3 3 3 3 4 8 4 7 7 6 7 5
5 10 9 2 3 1 4 4 7 12 12 2 3 5 18 19 17 17 16 14 12 11 11 9 9 7 7 5 4 5 4 3 4 4 3 3 3 4 4 3 4 4 4 6 5 4 6 7 8
8 9 7 5 3 5 8 9 8 13 11 14 7 1 16 16 17 15 14 12 10 12 12 11 9 8 7 7 5 4 5 4 5 5 3 3 4 4 4 3 3 3 4 4 5 5 5 5 6
3 7 10 7 9 7 6 6 5 9 15 14 10 11 11 15 17 12 15 15 15 14 13 13 10 9 8 6 7 5 5 5 4 4 4 4 4 3 3 3 3 4 4 3 3 4 4 4 5
3 8 9 11 10 5 5 10 16 22 5 8 11 11 12 13 13 20 18 17 16 13 13 14 11 9 9 8 7 6 5 5 5 5 6 5 4 4 3 3 3 4 2 3 3 3 4 4 5
4 5 5 3 12 7 9 15 12 18 12 13 11 9 10 13 16 13 12 15 12 11 15 13 13 11 9 7 6 5 5 4 5 5 5 6 5 4 3 2 3 2 1 2 3 3 4 4 5
9 7 10 9 11 9 10 11 3 4 5 7 10 11 11 12 15 14 13 12 13 13 15 15 13 12 9 8 6 6 7 5 5 5 5 7 6 5 3 3 2 2 1 3 3 3 4 4 5
7 10 10 10 8 7 7 17 15 9 6 11 11 11 13 13 15 14 14 13 14 13 13 14 12 11 9 6 6 5 5 4 5 5 5 8 6 6 3 3 3 2 1 2 3 4 3 4 6
13 15 16 20 8 9 16 17 18 17 9 12 16 17 13 14 11 15 16 13 15 14 15 16 15 12 10 7 7 5 7 5 4 5 8 8 6 6 6 3 2 1 1 1 2 2 4 3 4
8 12 17 16 8 9 11 13 12 10 16 16 17 17 19 11 9 9 16 15 17 17 16 16 17 15 13 10 8 4 5 4 4 4 6 7 7 6 5 4 2 1 0 2 2 2 2 3 2
18 13 19 18 12 5 4 8 13 12 18 20 19 19 19 12 10 11 16 16 13 16 18 18 19 17 14 10 7 3 5 4 4 5 5 6 8 7 7 6 4 3 2 2 2 2 3 3 3
21 9 10 11 7 10 9 9 8 7 10 10 15 13 17 9 9 12 14 16 17 17 15 16 16 16 14 14 13 10 9 7 5 7 5 6 8 7 7 6 5 5 3 3 3 3 3 2 4
15 5 4 4 6 6 7 9 8 12 10 12 11 13 17 6 10 12 16 17 15 14 14 14 14 13 14 15 13 11 8 5 5 5 10 7 6 7 7 7 6 5 4 4 4 4 4 3 3
4 1 4 3 2 10 12 13 8 9 10 6 8 12 9 8 8 8 8 10 11 12 12 13 15 15 14 15 14 15 14 10 8 7 8 6 5 5 7 7 6 6 5 5 4 5 4 4 5
3 4 4 4 3 13 13 15 16 5 8 10 11 19 9 9 9 9 12 12 12 15 15 14 17 18 17 18 17 16 14 11 12 12 9 8 5 4 7 7 6 5 5 5 3 3 4 4 5
9 9 8 8 5 18 5 10 7 9 12 12 14 15 10 10 9 10 11 12 12 13 16 16 19 18 18 17 18 14 13 10 9 11 9 7 6 6 7 6 6 5 4 4 4 3 4 5 5
6 8 4 3 1 4 11 11 7 7 11 11 15 7 9 9 9 11 9 9 9 12 16 18 18 17 17 17 14 14 13 12 11 9 7 6 6 5 7 7 6 5 4 4 5 4 5 5 6
3 1 3 2 3 9 22 10 16 8 17 11 8 9 7 8 9 9 10 11 10 12 13 14 15 17 17 16 15 13 13 10 8 9 9 9 7 7 7 6 6 6 5 5 4 4 4 5 5
3 4 5 2 6 8 14 14 3 5 6 9 10 7 7 9 9 10 10 9 11 11 13 14 15 16 16 14 15 14 12 10 10 10 9 8 7 8 7 6 5 4 3 3 4 4 5 7 7
8 11 11 9 12 4 6 30 8 4 3 8 7 8 8 8 9 9 10 10 11 14 12 15 14 16 16 14 14 14 11 11 11 11 9 9 8 7 7 6 5 4 4 4 4 6 6 7 8
Wind_Direction
275 230 260 302 273 203 257 164 75 108 101 60 323 50 50 65 352 196 141 117 118 119 115 78 78 81 79 74 78 75 68 68 65 61 58 59 54 51 49 45 39 35 31 31 28 29 27 18 14
301 278 262 275 250 264 299 100 149 151 70 80 37 48 336 85 94 120 127 171 126 115 87 84 92 96 93 87 84 82 86 82 79 78 73 68 60 56 54 51 42 35 31 25 21 16 16 10 10
273 263 275 206 232 256 19 92 124 78 97 134 141 16 359 94 105 143 116 149 140 110 108 107 110 105 99 91 88 87 82 81 77 77 76 69 63 58 53 50 44 39 34 26 25 22 18 13 359
287 204 269 256 270 293 37 57 110 114 60 334 46 171 85 338 127 130 140 156 125 112 105 120 115 106 103 98 92 87 85 81 77 75 70 64 60 55 51 49 43 36 30 23 23 19 16 13 11
245 270 257 224 249 240 95 330 123 161 155 165 168 165 139 155 94 122 147 149 136 114 112 107 117 117 112 108 105 101 95 90 84 79 77 71 64 59 52 42 38 35 33 30 24 17 12 4 1
274 233 276 254 295 100 89 164 162 178 169 113 165 283 143 136 137 154 157 148 146 124 109 113 102 109 106 105 105 101 97 95 93 90 83 79 68 60 55 44 40 33 26 24 20 16 10 5 359
256 281 257 284 308 294 169 131 220 207 173 174 91 209 115 160 159 154 164 146 140 131 135 144 137 112 105 104 107 106 104 95 90 88 88 80 74 66 52 43 37 31 25 24 18 13 6 4 0
320 281 271 259 262 335 103 150 49 259 232 41 139 225 200 177 154 150 158 147 152 150 158 152 140 155 131 110 117 118 111 100 87 84 83 79 75 68 59 41 36 34 30 28 20 15 8 8 9
255 280 267 269 302 218 107 204 147 84 184 205 182 334 71 137 136 151 159 166 173 168 169 160 164 159 138 135 138 127 120 120 117 110 121 223 74 39 89 54 37 36 28 25 20 17 15 14 5
216 229 259 25 354 287 163 213 169 196 222 226 198 111 119 143 157 175 183 188 187 179 183 164 168 164 154 160 162 180 170 146 98 71 62 47 95 115 85 57 41 30 29 22 17 13 11 3 351
219 230 209 316 315 356 292 215 242 180 250 207 215 191 161 164 178 191 198 199 194 177 177 175 173 168 166 156 162 161 152 143 127 90 71 55 85 57 61 49 32 23 28 26 16 8 5 351 346
263 244 262 326 59 302 247 288 258 218 230 340 207 231 165 177 187 197 200 201 185 182 177 175 173 161 174 150 165 158 140 143 133 116 73 102 85 60 57 51 39 31 21 22 10 358 353 345 336
220 267 276 265 182 248 279 257 255 259 247 240 232 180 172 187 198 202 202 198 186 187 175 171 164 165 169 159 181 156 137 150 136 124 87 56 89 84 74 62 56 49 33 25 360 352 339 331 325
31 296 290 258 213 220 230 256 213 239 236 243 230 194 196 196 199 199 203 200 196 183 174 164 164 166 162 179 163 157 156 139 141 123 119 90 97 91 83 67 50 49 36 356 329 324 325 316 310
291 301 266 239 217 233 174 273 231 244 248 233 228 214 198 212 197 207 204 202 194 186 165 165 162 167 166 180 165 155 159 151 148 134 139 129 103 97 81 77 56 63 358 328 321 322 327 326 314
227 227 278 230 176 162 140 270 228 246 208 216 233 243 221 210 220 213 205 195 191 175 168 162 169 172 167 173 163 157 153 156 145 142 140 127 112 101 104 106 89 70 331 309 331 332 342 323 316
222 251 236 264 180 135 177 255 263 81 147 215 227 234 234 224 220 205 191 181 182 174 169 166 166 169 166 165 159 156 155 160 158 148 147 148 137 141 143 133 124 96 343 344 338 4 347 324 316
222 230 248 250 195 185 204 251 267 242 213 244 245 236 239 241 224 200 185 173 168 166 169 164 165 163 164 156 151 143 146 178 158 163 159 148 155 153 156 162 149 126 57 352 5 345 321 305 303
256 267 270 270 257 176 231 240 251 261 239 256 262 259 251 246 235 197 181 164 161 162 166 168 167 171 169 167 165 165 178 177 167 171 156 158 157 163 175 174 149 126 77 308 318 294 311 308 310
271 271 266 277 295 209 249 253 254 263 267 253 256 266 260 254 240 182 164 168 171 168 169 169 176 178 182 177 174 161 161 181 164 161 159 165 161 174 173 162 164 134 125 319 317 315 321 289 3
247 244 259 264 285 222 322 267 254 252 252 260 262 253 258 242 225 169 168 172 161 170 176 178 181 181 181 170 167 155 112 95 135 169 166 180 170 172 173 176 167 179 170 218 253 294 278 277 314
263 230 257 266 278 256 158 282 222 226 230 227 244 253 255 237 218 161 165 172 174 179 177 178 181 183 183 174 178 181 180 167 186 179 167 174 167 174 178 175 175 178 183 208 226 231 213 227 258
265 169 218 267 260 303 252 280 227 200 233 243 237 253 260 218 177 159 177 175 174 170 175 182 182 185 185 183 183 181 184 186 155 154 160 162 173 178 177 174 178 184 188 207 221 247 247 231 239
129 115 218 233 206 256 205 214 230 200 210 222 232 248 242 155 155 149 148 148 168 170 171 178 185 191 185 186 186 186 185 183 158 157 162 166 174 179 180 181 178 185 189 204 220 235 243 254 247
179 142 282 293 194 250 187 223 237 182 177 191 211 243 149 155 165 167 163 171 174 178 179 181 190 197 189 190 194 190 187 187 177 170 171 170 166 176 188 176 179 182 190 196 209 246 252 246 244
187 178 172 234 215 274 229 255 247 213 230 207 203 244 155 170 174 179 178 179 183 179 185 188 194 198 194 192 196 193 187 190 185 177 171 174 169 166 170 163 167 175 186 203 212 229 236 239 248
183 211 198 249 128 311 233 264 306 255 238 218 225 161 174 181 179 184 182 181 183 188 189 196 195 200 200 195 195 197 194 190 181 166 155 162 155 160 157 159 170 182 189 208 217 224 245 244 257
199 202 126 223 250 240 276 281 271 196 234 219 225 218 223 204 192 189 190 185 182 192 196 197 199 202 200 193 195 196 197 185 164 157 161 161 159 155 157 165 180 194 201 207 221 237 247 258 266
156 237 233 246 189 223 273 269 295 160 149 195 222 219 230 204 194 190 198 189 191 191 193 194 196 195 199 193 189 190 190 176 164 164 157 158 151 160 163 167 185 204 220 228 244 256 265 268 270
215 224 183 216 237 233 231 265 153 120 137 148 191 196 204 193 197 202 203 180 188 200 193 196 197 197 199 192 184 188 172 168 168 162 156 155 159 156 156 166 184 202 220 228 238 253 261 266 270